CW4541 Weather Reports


Display with metric or nautical units.
time (UTC)temp
F
wind
direction
speed
MPH
gust
MPH
rain 1hr
in
rain 24hr
in
rain mn
in
humidity
%
barometer
mb
20260507150606 49 0 0.0 1.0 0.00 0.05 0.00 20 1034.4
20260507150111 48 0 0.0 1.0 0.00 0.06 0.00 22 1034.4
20260507140606 40 0 0.0 2.0 0.00 0.09 0.00 30 1034.7
20260507140111 40 0 0.0 1.0 0.00 0.09 0.00 31 1034.7
20260507130606 35 0 0.0 2.0 0.00 0.09 0.00 37 1034.4
20260507130111 34 0 0.0 2.0 0.00 0.09 0.00 38 1034.4
20260507120605 27 0 0.0 0.0 0.00 0.09 0.00 49 1033.9
20260507120110 27 0 0.0 0.0 0.00 0.09 0.00 48 1033.8
20260507110605 29 0 0.0 0.0 0.00 0.09 0.00 46 1033.1
20260507110110 29 0 0.0 0.0 0.00 0.09 0.00 46 1033.1
20260507100606 30 0 0.0 0.0 0.00 0.09 0.00 44 1033.2
20260507100111 30 0 0.0 1.0 0.00 0.09 0.00 44 1033.1
20260507090605 29 0 0.0 0.0 0.00 0.09 0.00 46 1033.2
20260507090110 29 0 0.0 0.0 0.00 0.09 0.00 46 1033.3
20260507080605 31 0 0.0 0.0 0.00 0.09 0.00 42 1032.9
20260507070609 29 0 0.0 0.0 0.00 0.09 0.00 47 1033.3
20260507070110 28 0 0.0 0.0 0.00 0.09 0.00 48 1033.4
20260507060110 31 0 0.0 0.0 0.00 0.09 0.00 40 1032.7
20260507050607 33 0 0.0 0.0 0.00 0.09 0.09 36 1032.5
20260507050113 33 0 0.0 0.0 0.00 0.09 0.09 36 1032.5
20260507040607 34 0 0.0 0.0 0.00 0.09 0.09 32 1031.9
20260507040115 34 0 0.0 0.0 0.00 0.09 0.09 32 1032.0
20260507030607 40 0 0.0 3.0 0.00 0.09 0.09 23 1030.8
20260507020607 43 0 2.0 8.0 0.00 0.09 0.09 17 1030.0
20260507020114 44 0 3.0 8.0 0.00 0.09 0.09 16 1029.9
20260507010610 48 0 3.0 8.0 0.00 0.09 0.09 15 1028.7
20260507010112 49 0 5.0 8.0 0.00 0.09 0.09 14 1028.6
20260507000112 50 0 6.0 12.0 0.00 0.09 0.09 12 1027.8
20260506230607 50 0 6.0 13.0 0.00 0.09 0.09 13 1026.8
20260506230113 50 0 5.0 14.0 0.00 0.09 0.09 14 1026.9
20260506210607 49 0 9.0 18.0 0.00 0.09 0.09 20 1026.2
20260506200115 47 0 8.0 17.0 0.00 0.09 0.09 25 1025.6
20260506190607 46 0 7.0 14.0 0.00 0.09 0.09 33 1024.6
20260506190111 44 0 5.0 15.0 0.00 0.09 0.09 45 1024.8
20260506180607 45 0 5.0 13.0 0.00 0.09 0.09 58 1023.9
20260506180112 45 0 5.0 14.0 0.00 0.09 0.09 56 1023.8
20260506170607 40 0 3.0 8.0 0.00 0.09 0.09 80 1022.8
20260506170111 39 0 3.0 8.0 0.00 0.09 0.09 81 1022.9
20260506160112 36 0 6.0 12.0 0.06 0.09 0.09 81 1021.9